owner,sensor,date,latitude,longitude,vertical_datum,direction_of_sea_water_velocity,sea_water_speed,upward_sea_water_velocity,qcFlag 
TABS,ioos:station:TABS:L:1,1998-06-01T00:00:00Z,28.0416,-94.1166,2.0,247.1845421,28.44554974,-99999.0,'11111222,11111222,99999999' 
TABS,ioos:station:TABS:L:1,1998-06-01T00:30:00Z,28.0416,-94.1166,2.0,226.5559958,34.88737594,-99999.0,'11111222,11111222,99999999' 
TABS,ioos:station:TABS:L:1,1998-06-01T01:00:00Z,28.0416,-94.1166,2.0,256.1685635,39.27889637,-99999.0,'11111222,11111222,99999999' 
TABS,ioos:station:TABS:L:1,1998-06-01T01:30:00Z,28.0416,-94.1166,2.0,214.0440403,79.84507248,-99999.0,'11111222,11111222,99999999' 
TABS,ioos:station:TABS:L:1,1998-06-01T02:00:00Z,28.0416,-94.1166,2.0,264.0755435,50.47958201,-99999.0,'11111222,11111222,99999999' 
TABS,ioos:station:TABS:L:1,1998-06-01T02:30:00Z,28.0416,-94.1166,2.0,261.8234011,49.22030475,-99999.0,'11111222,11111222,99999999' 
TABS,ioos:station:TABS:L:1,1998-06-01T03:00:00Z,28.0416,-94.1166,2.0,261.3821138,46.71740682,-99999.0,'11111222,11111222,99999999' 
TABS,ioos:station:TABS:L:1,1998-06-01T03:30:00Z,28.0416,-94.1166,2.0,262.4909342,50.20046315,-99999.0,'11111222,11111222,99999999' 
TABS,ioos:station:TABS:L:1,1998-06-01T05:00:00Z,28.0416,-94.1166,2.0,257.5308163,57.98771249,-99999.0,'11111222,11111222,99999999' 
TABS,ioos:station:TABS:L:1,1998-06-01T05:30:00Z,28.0416,-94.1166,2.0,262.9280378,54.50460714,-99999.0,'11111222,11111222,99999999' 
TABS,ioos:station:TABS:L:1,1998-06-01T06:00:00Z,28.0416,-94.1166,2.0,268.6735794,51.42377077,-99999.0,'11111222,11111222,99999999' 
TABS,ioos:station:TABS:L:1,1998-06-01T06:30:00Z,28.0416,-94.1166,2.0,273.405254,55.22748682,-99999.0,'11111222,11111222,99999999' 
TABS,ioos:station:TABS:L:1,1998-06-01T07:00:00Z,28.0416,-94.1166,2.0,278.6181698,56.65969026,-99999.0,'11111222,11111222,99999999' 
TABS,ioos:station:TABS:L:1,1998-06-01T07:30:00Z,28.0416,-94.1166,2.0,287.7019923,58.80420733,-99999.0,'11111222,11111222,99999999' 
TABS,ioos:station:TABS:L:1,1998-06-01T08:00:00Z,28.0416,-94.1166,2.0,289.9088929,60.37836119,-99999.0,'11111222,11111222,99999999' 
TABS,ioos:station:TABS:L:1,1998-06-01T08:30:00Z,28.0416,-94.1166,2.0,298.3096516,59.0640339,-99999.0,'11111222,11111222,99999999' 
TABS,ioos:station:TABS:L:1,1998-06-01T09:00:00Z,28.0416,-94.1166,2.0,304.5056424,54.9708068,-99999.0,'11111222,11111222,99999999' 
TABS,ioos:station:TABS:L:1,1998-06-01T09:30:00Z,28.0416,-94.1166,2.0,310.2450776,52.11638226,-99999.0,'11111222,11111222,99999999' 
TABS,ioos:station:TABS:L:1,1998-06-01T10:00:00Z,28.0416,-94.1166,2.0,317.9231113,51.58690725,-99999.0,'11111222,11111222,99999999' 
TABS,ioos:station:TABS:L:1,1998-06-01T10:30:00Z,28.0416,-94.1166,2.0,322.0215459,50.84752206,-99999.0,'11111222,11111222,99999999' 
TABS,ioos:station:TABS:L:1,1998-06-01T11:00:00Z,28.0416,-94.1166,2.0,324.5010729,48.4938759,-99999.0,'11111222,11111222,99999999' 
TABS,ioos:station:TABS:L:1,1998-06-01T11:30:00Z,28.0416,-94.1166,2.0,328.784463,45.99979565,-99999.0,'11111222,11111222,99999999' 
TABS,ioos:station:TABS:L:1,1998-06-01T12:00:00Z,28.0416,-94.1166,2.0,325.00715,41.83243957,-99999.0,'11111222,11111222,99999999' 
TABS,ioos:station:TABS:L:1,1998-06-01T12:30:00Z,28.0416,-94.1166,2.0,341.2737138,36.66075968,-99999.0,'11111222,11111222,99999999' 
TABS,ioos:station:TABS:L:1,1998-06-01T13:00:00Z,28.0416,-94.1166,2.0,346.5857529,30.17320831,-99999.0,'11111222,11111222,99999999' 
TABS,ioos:station:TABS:L:1,1998-06-01T13:30:00Z,28.0416,-94.1166,2.0,344.0945833,27.73173092,-99999.0,'11111222,11111222,99999999' 
TABS,ioos:station:TABS:L:1,1998-06-01T14:00:00Z,28.0416,-94.1166,2.0,5.63774016,25.75456853,-99999.0,'11111222,11111222,99999999' 
TABS,ioos:station:TABS:L:1,1998-06-01T14:30:00Z,28.0416,-94.1166,2.0,21.10206386,22.35938505,-99999.0,'11111222,11111222,99999999' 
TABS,ioos:station:TABS:L:1,1998-06-01T15:00:00Z,28.0416,-94.1166,2.0,16.89762613,17.44307886,-99999.0,'11111222,11111222,99999999' 
TABS,ioos:station:TABS:L:1,1998-06-01T15:30:00Z,28.0416,-94.1166,2.0,28.35132423,8.465394261,-99999.0,'11133222,11111222,99999999' 
TABS,ioos:station:TABS:L:1,1998-06-01T16:00:00Z,28.0416,-94.1166,2.0,308.1878863,5.305402906,-99999.0,'11133222,11111222,99999999' 
TABS,ioos:station:TABS:L:1,1998-06-01T16:30:00Z,28.0416,-94.1166,2.0,110.91212,22.97328013,-99999.0,'11111222,11111222,99999999' 
TABS,ioos:station:TABS:L:1,1998-06-01T17:00:00Z,28.0416,-94.1166,2.0,117.7479594,35.52527551,-99999.0,'11111222,11111222,99999999' 
TABS,ioos:station:TABS:L:1,1998-06-01T17:30:00Z,28.0416,-94.1166,2.0,134.3281173,63.3257649,-99999.0,'11111222,11111222,99999999' 
TABS,ioos:station:TABS:L:1,1998-06-01T18:00:00Z,28.0416,-94.1166,2.0,144.7985395,82.97318181,-99999.0,'11111222,11111222,99999999' 
TABS,ioos:station:TABS:L:1,1998-06-01T18:30:00Z,28.0416,-94.1166,2.0,149.7628568,48.81070887,-99999.0,'11111222,11111222,99999999' 
TABS,ioos:station:TABS:L:1,1998-06-01T19:00:00Z,28.0416,-94.1166,2.0,154.398793,47.58131671,-99999.0,'11111222,11111222,99999999' 
TABS,ioos:station:TABS:L:1,1998-06-01T19:30:00Z,28.0416,-94.1166,2.0,160.5361099,63.05333139,-99999.0,'11111222,11111222,99999999' 
TABS,ioos:station:TABS:L:1,1998-06-01T20:00:00Z,28.0416,-94.1166,2.0,180.8542474,40.23447402,-99999.0,'11111222,11111222,99999999' 
TABS,ioos:station:TABS:L:1,1998-06-01T20:30:00Z,28.0416,-94.1166,2.0,181.6055003,37.11457396,-99999.0,'11111222,11111222,99999999' 
TABS,ioos:station:TABS:L:1,1998-06-01T21:00:00Z,28.0416,-94.1166,2.0,192.047261,36.41197743,-99999.0,'11111222,11111222,99999999' 
TABS,ioos:station:TABS:L:1,1998-06-01T21:30:00Z,28.0416,-94.1166,2.0,203.7621638,42.16453723,-99999.0,'11111222,11111222,99999999' 
TABS,ioos:station:TABS:L:1,1998-06-01T22:00:00Z,28.0416,-94.1166,2.0,199.6996444,46.84158516,-99999.0,'11111222,11111222,99999999' 
TABS,ioos:station:TABS:L:1,1998-06-01T22:30:00Z,28.0416,-94.1166,2.0,205.2520521,46.45979767,-99999.0,'11111222,11111222,99999999' 
TABS,ioos:station:TABS:L:1,1998-06-01T23:00:00Z,28.0416,-94.1166,2.0,206.7912424,50.91566557,-99999.0,'11111222,11111222,99999999' 
TABS,ioos:station:TABS:L:1,1998-06-01T23:30:00Z,28.0416,-94.1166,2.0,212.7867805,49.80439539,-99999.0,'11111222,11111222,99999999' 
TABS,ioos:station:TABS:L:1,1998-06-02T00:00:00Z,28.0416,-94.1166,2.0,209.4291769,63.98676816,-99999.0,'11111222,11111222,99999999' 
TABS,ioos:station:TABS:L:1,1998-06-02T00:30:00Z,28.0416,-94.1166,2.0,214.6402873,69.7187672,-99999.0,'11111222,11111222,99999999' 
TABS,ioos:station:TABS:L:1,1998-06-02T01:00:00Z,28.0416,-94.1166,2.0,217.3698498,54.74808672,-99999.0,'11111222,11111222,99999999' 
TABS,ioos:station:TABS:L:1,1998-06-02T01:30:00Z,28.0416,-94.1166,2.0,228.5398739,39.16359789,-99999.0,'11111222,11111222,99999999' 
TABS,ioos:station:TABS:L:1,1998-06-02T02:00:00Z,28.0416,-94.1166,2.0,221.7322503,72.07943188,-99999.0,'11111222,11111222,99999999' 
TABS,ioos:station:TABS:L:1,1998-06-02T02:30:00Z,28.0416,-94.1166,2.0,229.2336022,72.79023149,-99999.0,'11111222,11111222,99999999' 
TABS,ioos:station:TABS:L:1,1998-06-02T03:00:00Z,28.0416,-94.1166,2.0,234.0148257,73.2847433,-99999.0,'11111222,11111222,99999999' 
TABS,ioos:station:TABS:L:1,1998-06-02T03:30:00Z,28.0416,-94.1166,2.0,235.8495799,72.19933102,-99999.0,'11111222,11111222,99999999' 
TABS,ioos:station:TABS:L:1,1998-06-02T05:00:00Z,28.0416,-94.1166,2.0,258.0123739,68.8513798,-99999.0,'11111222,11111222,99999999' 
TABS,ioos:station:TABS:L:1,1998-06-02T05:30:00Z,28.0416,-94.1166,2.0,261.6756026,66.86440009,-99999.0,'11111222,11111222,99999999' 
TABS,ioos:station:TABS:L:1,1998-06-02T06:00:00Z,28.0416,-94.1166,2.0,273.0229229,65.05049193,-99999.0,'11111222,11111222,99999999' 
TABS,ioos:station:TABS:L:1,1998-06-02T06:30:00Z,28.0416,-94.1166,2.0,282.5597554,63.04867723,-99999.0,'11111222,11111222,99999999' 
TABS,ioos:station:TABS:L:1,1998-06-02T07:00:00Z,28.0416,-94.1166,2.0,285.3757664,63.51317344,-99999.0,'11111222,11111222,99999999' 
TABS,ioos:station:TABS:L:1,1998-06-02T07:30:00Z,28.0416,-94.1166,2.0,295.375936,61.18305975,-99999.0,'11111222,11111222,99999999' 
TABS,ioos:station:TABS:L:1,1998-06-02T08:00:00Z,28.0416,-94.1166,2.0,304.3827005,61.74818621,-99999.0,'11111222,11111222,99999999' 
TABS,ioos:station:TABS:L:1,1998-06-02T08:30:00Z,28.0416,-94.1166,2.0,308.3244452,63.44043269,-99999.0,'11111222,11111222,99999999' 
TABS,ioos:station:TABS:L:1,1998-06-02T09:00:00Z,28.0416,-94.1166,2.0,314.896757,58.68288762,-99999.0,'11111222,11111222,99999999' 
TABS,ioos:station:TABS:L:1,1998-06-02T09:30:00Z,28.0416,-94.1166,2.0,321.6076032,54.93940298,-99999.0,'11111222,11111222,99999999' 
TABS,ioos:station:TABS:L:1,1998-06-02T10:00:00Z,28.0416,-94.1166,2.0,325.6213974,51.44661408,-99999.0,'11111222,11111222,99999999' 
TABS,ioos:station:TABS:L:1,1998-06-02T10:30:00Z,28.0416,-94.1166,2.0,328.2798085,48.17643926,-99999.0,'11111222,11111222,99999999' 
TABS,ioos:station:TABS:L:1,1998-06-02T11:00:00Z,28.0416,-94.1166,2.0,332.417068,45.05046615,-99999.0,'11111222,11111222,99999999' 
TABS,ioos:station:TABS:L:1,1998-06-02T11:30:00Z,28.0416,-94.1166,2.0,337.8388422,39.89743099,-99999.0,'11111222,11111222,99999999' 
TABS,ioos:station:TABS:L:1,1998-06-02T12:00:00Z,28.0416,-94.1166,2.0,351.3324551,35.56620868,-99999.0,'11111222,11111222,99999999' 
TABS,ioos:station:TABS:L:1,1998-06-02T12:30:00Z,28.0416,-94.1166,2.0,7.544790388,22.69648431,-99999.0,'11111222,11111222,99999999' 
TABS,ioos:station:TABS:L:1,1998-06-02T13:00:00Z,28.0416,-94.1166,2.0,19.08865033,33.26932521,-99999.0,'11111222,11111222,99999999' 
TABS,ioos:station:TABS:L:1,1998-06-02T13:30:00Z,28.0416,-94.1166,2.0,25.61796039,36.51998083,-99999.0,'11111222,11111222,99999999' 
TABS,ioos:station:TABS:L:1,1998-06-02T14:00:00Z,28.0416,-94.1166,2.0,37.08367492,25.20817526,-99999.0,'11111222,11111222,99999999' 
TABS,ioos:station:TABS:L:1,1998-06-02T14:30:00Z,28.0416,-94.1166,2.0,45.27868802,21.81450206,-99999.0,'11111222,11111222,99999999' 
TABS,ioos:station:TABS:L:1,1998-06-02T15:00:00Z,28.0416,-94.1166,2.0,60.63577867,66.84875466,-99999.0,'11111222,11111222,99999999' 
TABS,ioos:station:TABS:L:1,1998-06-02T15:30:00Z,28.0416,-94.1166,2.0,83.66703689,35.08409611,-99999.0,'11111222,11111222,99999999' 
TABS,ioos:station:TABS:L:1,1998-06-02T16:00:00Z,28.0416,-94.1166,2.0,88.99000362,67.51048881,-99999.0,'11111222,11111222,99999999' 
TABS,ioos:station:TABS:L:1,1998-06-02T16:30:00Z,28.0416,-94.1166,2.0,95.7704677,53.31014162,-99999.0,'11111222,11111222,99999999' 
TABS,ioos:station:TABS:L:1,1998-06-02T17:00:00Z,28.0416,-94.1166,2.0,104.7375102,53.30362183,-99999.0,'11111222,11111222,99999999' 
TABS,ioos:station:TABS:L:1,1998-06-02T17:30:00Z,28.0416,-94.1166,2.0,113.5545691,57.05374659,-99999.0,'11111222,11111222,99999999' 
TABS,ioos:station:TABS:L:1,1998-06-02T18:00:00Z,28.0416,-94.1166,2.0,118.5609318,55.47025149,-99999.0,'11111222,11111222,99999999' 
TABS,ioos:station:TABS:L:1,1998-06-02T18:30:00Z,28.0416,-94.1166,2.0,120.8859977,53.12345057,-99999.0,'11111222,11111222,99999999' 
TABS,ioos:station:TABS:L:1,1998-06-02T19:00:00Z,28.0416,-94.1166,2.0,124.2765365,56.62398962,-99999.0,'11111222,11111222,99999999' 
TABS,ioos:station:TABS:L:1,1998-06-02T19:30:00Z,28.0416,-94.1166,2.0,134.4218266,62.37706389,-99999.0,'11111222,11111222,99999999' 
TABS,ioos:station:TABS:L:1,1998-06-02T20:00:00Z,28.0416,-94.1166,2.0,145.121967,49.77007635,-99999.0,'11111222,11111222,99999999' 
TABS,ioos:station:TABS:L:1,1998-06-02T20:30:00Z,28.0416,-94.1166,2.0,145.8350827,49.87758013,-99999.0,'11111222,11111222,99999999' 
TABS,ioos:station:TABS:L:1,1998-06-02T21:00:00Z,28.0416,-94.1166,2.0,143.6606608,58.08649154,-99999.0,'11111222,11111222,99999999' 
TABS,ioos:station:TABS:L:1,1998-06-02T21:30:00Z,28.0416,-94.1166,2.0,151.1788514,54.07873242,-99999.0,'11111222,11111222,99999999' 
TABS,ioos:station:TABS:L:1,1998-06-02T22:30:00Z,28.0416,-94.1166,2.0,166.9922286,46.33904833,-99999.0,'11111222,11111222,99999999' 
TABS,ioos:station:TABS:L:1,1998-06-02T23:00:00Z,28.0416,-94.1166,2.0,174.1934625,25.00830462,-99999.0,'11111222,11111222,99999999' 
TABS,ioos:station:TABS:L:1,1998-06-02T23:30:00Z,28.0416,-94.1166,2.0,179.9997895,24.29,-99999.0,'11111222,11111222,99999999' 
TABS,ioos:station:TABS:L:1,1998-06-03T00:00:00Z,28.0416,-94.1166,2.0,190.1457944,24.52349893,-99999.0,'11111222,11111222,99999999' 
TABS,ioos:station:TABS:L:1,1998-06-03T00:30:00Z,28.0416,-94.1166,2.0,208.6676269,50.94510379,-99999.0,'11111222,11111222,99999999' 
TABS,ioos:station:TABS:L:1,1998-06-03T01:00:00Z,28.0416,-94.1166,2.0,201.322614,13.11797622,-99999.0,'11111222,11111222,99999999' 
TABS,ioos:station:TABS:L:1,1998-06-03T01:30:00Z,28.0416,-94.1166,2.0,220.731588,56.62658916,-99999.0,'11111222,11111222,99999999' 
TABS,ioos:station:TABS:L:1,1998-06-03T02:00:00Z,28.0416,-94.1166,2.0,246.8039253,26.09977969,-99999.0,'11111222,11111222,99999999' 
TABS,ioos:station:TABS:L:1,1998-06-03T02:30:00Z,28.0416,-94.1166,2.0,252.8161509,30.26072868,-99999.0,'11111222,11111222,99999999' 
TABS,ioos:station:TABS:L:1,1998-06-03T03:00:00Z,28.0416,-94.1166,2.0,256.1860476,37.44293258,-99999.0,'11111222,11111222,99999999' 
TABS,ioos:station:TABS:L:1,1998-06-03T03:30:00Z,28.0416,-94.1166,2.0,262.8960144,39.78538425,-99999.0,'11111222,11111222,99999999' 
TABS,ioos:station:TABS:L:1,1998-06-03T05:00:00Z,28.0416,-94.1166,2.0,283.1923358,39.17375652,-99999.0,'11111222,11111222,99999999' 
TABS,ioos:station:TABS:L:1,1998-06-03T05:30:00Z,28.0416,-94.1166,2.0,290.4240591,37.99868024,-99999.0,'11111222,11111222,99999999' 
TABS,ioos:station:TABS:L:1,1998-06-03T06:00:00Z,28.0416,-94.1166,2.0,301.81711,39.2826743,-99999.0,'11111222,11111222,99999999' 
TABS,ioos:station:TABS:L:1,1998-06-03T06:30:00Z,28.0416,-94.1166,2.0,311.820493,37.98769538,-99999.0,'11111222,11111222,99999999' 
TABS,ioos:station:TABS:L:1,1998-06-03T07:00:00Z,28.0416,-94.1166,2.0,315.7243,41.41147908,-99999.0,'11111222,11111222,99999999' 
TABS,ioos:station:TABS:L:1,1998-06-03T07:30:00Z,28.0416,-94.1166,2.0,319.791381,42.92286687,-99999.0,'11111222,11111222,99999999' 
TABS,ioos:station:TABS:L:1,1998-06-03T08:00:00Z,28.0416,-94.1166,2.0,326.474474,44.50377961,-99999.0,'11111222,11111222,99999999' 
TABS,ioos:station:TABS:L:1,1998-06-03T08:30:00Z,28.0416,-94.1166,2.0,335.8782134,43.75042057,-99999.0,'11111222,11111222,99999999' 
TABS,ioos:station:TABS:L:1,1998-06-03T09:00:00Z,28.0416,-94.1166,2.0,339.0352913,47.06578481,-99999.0,'11111222,11111222,99999999' 
TABS,ioos:station:TABS:L:1,1998-06-03T09:30:00Z,28.0416,-94.1166,2.0,346.1486605,46.65682051,-99999.0,'11111222,11111222,99999999' 
TABS,ioos:station:TABS:L:1,1998-06-03T10:00:00Z,28.0416,-94.1166,2.0,350.5689874,45.46454663,-99999.0,'11111222,11111222,99999999' 
TABS,ioos:station:TABS:L:1,1998-06-03T10:30:00Z,28.0416,-94.1166,2.0,347.1393402,47.53243103,-99999.0,'11111222,11111222,99999999' 
TABS,ioos:station:TABS:L:1,1998-06-03T11:00:00Z,28.0416,-94.1166,2.0,352.8539073,46.70280184,-99999.0,'11111222,11111222,99999999' 
TABS,ioos:station:TABS:L:1,1998-06-03T11:30:00Z,28.0416,-94.1166,2.0,347.9527042,54.23452775,-99999.0,'11111222,11111222,99999999' 
TABS,ioos:station:TABS:L:1,1998-06-03T12:00:00Z,28.0416,-94.1166,2.0,353.1093244,53.42592723,-99999.0,'11111222,11111222,99999999' 
TABS,ioos:station:TABS:L:1,1998-06-03T12:30:00Z,28.0416,-94.1166,2.0,349.396873,51.84528137,-99999.0,'11111222,11111222,99999999' 
TABS,ioos:station:TABS:L:1,1998-06-03T13:00:00Z,28.0416,-94.1166,2.0,14.55037709,52.1836392,-99999.0,'11111222,11111222,99999999' 
TABS,ioos:station:TABS:L:1,1998-06-03T13:30:00Z,28.0416,-94.1166,2.0,354.2171146,50.3160859,-99999.0,'11111222,11111222,99999999' 
TABS,ioos:station:TABS:L:1,1998-06-03T14:00:00Z,28.0416,-94.1166,2.0,5.713169778,47.91800601,-99999.0,'11111222,11111222,99999999' 
TABS,ioos:station:TABS:L:1,1998-06-03T14:30:00Z,28.0416,-94.1166,2.0,16.42422164,59.02864135,-99999.0,'11111222,11111222,99999999' 
TABS,ioos:station:TABS:L:1,1998-06-03T15:00:00Z,28.0416,-94.1166,2.0,25.18443735,105.0451979,-99999.0,'11111222,11111222,99999999' 
TABS,ioos:station:TABS:L:1,1998-06-03T15:30:00Z,28.0416,-94.1166,2.0,31.26156524,68.33110346,-99999.0,'11111222,11111222,99999999' 
TABS,ioos:station:TABS:L:1,1998-06-03T16:00:00Z,28.0416,-94.1166,2.0,49.40659447,87.70715421,-99999.0,'11111222,11111222,99999999' 
TABS,ioos:station:TABS:L:1,1998-06-03T16:30:00Z,28.0416,-94.1166,2.0,58.79753394,47.73533073,-99999.0,'11111222,11111222,99999999' 
TABS,ioos:station:TABS:L:1,1998-06-03T17:00:00Z,28.0416,-94.1166,2.0,65.04615871,54.39820677,-99999.0,'11111222,11111222,99999999' 
TABS,ioos:station:TABS:L:1,1998-06-03T17:30:00Z,28.0416,-94.1166,2.0,78.54626586,56.25020711,-99999.0,'11111222,11111222,99999999' 
TABS,ioos:station:TABS:L:1,1998-06-03T18:00:00Z,28.0416,-94.1166,2.0,90.29655866,57.96077639,-99999.0,'11111222,11111222,99999999' 
TABS,ioos:station:TABS:L:1,1998-06-03T18:30:00Z,28.0416,-94.1166,2.0,99.95179995,82.74503006,-99999.0,'11111222,11111222,99999999' 
TABS,ioos:station:TABS:L:1,1998-06-03T19:00:00Z,28.0416,-94.1166,2.0,108.8684703,99.04220969,-99999.0,'11111222,11111222,99999999' 
TABS,ioos:station:TABS:L:1,1998-06-03T19:30:00Z,28.0416,-94.1166,2.0,115.9917619,79.56775289,-99999.0,'11111222,11111222,99999999' 
TABS,ioos:station:TABS:L:1,1998-06-03T20:00:00Z,28.0416,-94.1166,2.0,124.7917809,68.94534067,-99999.0,'11111222,11111222,99999999' 
TABS,ioos:station:TABS:L:1,1998-06-03T20:30:00Z,28.0416,-94.1166,2.0,124.7835746,60.59816664,-99999.0,'11111222,11111222,99999999' 
TABS,ioos:station:TABS:L:1,1998-06-03T21:00:00Z,28.0416,-94.1166,2.0,132.3816768,59.90498226,-99999.0,'11111222,11111222,99999999' 
TABS,ioos:station:TABS:L:1,1998-06-03T21:30:00Z,28.0416,-94.1166,2.0,150.8326843,52.89730144,-99999.0,'11111222,11111222,99999999' 
TABS,ioos:station:TABS:L:1,1998-06-03T22:00:00Z,28.0416,-94.1166,2.0,122.1769826,37.49971333,-99999.0,'11111222,11111222,99999999' 
TABS,ioos:station:TABS:L:1,1998-06-03T22:30:00Z,28.0416,-94.1166,2.0,160.1894468,43.07947191,-99999.0,'11111222,11111222,99999999' 
TABS,ioos:station:TABS:L:1,1998-06-03T23:00:00Z,28.0416,-94.1166,2.0,141.6197196,38.39733845,-99999.0,'11111222,11111222,99999999' 
TABS,ioos:station:TABS:L:1,1998-06-03T23:30:00Z,28.0416,-94.1166,2.0,156.8948618,20.89613361,-99999.0,'11111222,11111222,99999999' 
TABS,ioos:station:TABS:L:1,1998-06-04T00:00:00Z,28.0416,-94.1166,2.0,126.5984032,12.24413737,-99999.0,'11111222,11111222,99999999' 
TABS,ioos:station:TABS:L:1,1998-06-04T00:30:00Z,28.0416,-94.1166,2.0,197.0235004,55.47052551,-99999.0,'11111222,11111222,99999999' 
TABS,ioos:station:TABS:L:1,1998-06-04T01:00:00Z,28.0416,-94.1166,2.0,105.3408549,14.06100992,-99999.0,'11111222,11111222,99999999' 
TABS,ioos:station:TABS:L:1,1998-06-04T01:30:00Z,28.0416,-94.1166,2.0,93.6012697,7.164146844,-99999.0,'11133222,11111222,99999999' 
TABS,ioos:station:TABS:L:1,1998-06-04T02:00:00Z,28.0416,-94.1166,2.0,64.54382048,3.466554485,-99999.0,'11133222,11111222,99999999' 
TABS,ioos:station:TABS:L:1,1998-06-04T02:30:00Z,28.0416,-94.1166,2.0,286.4750014,6.840847901,-99999.0,'11133222,11111222,99999999' 
TABS,ioos:station:TABS:L:1,1998-06-04T05:00:00Z,28.0416,-94.1166,2.0,309.6518188,36.18463348,-99999.0,'11111222,11111222,99999999' 
TABS,ioos:station:TABS:L:1,1998-06-04T05:30:00Z,28.0416,-94.1166,2.0,312.5044199,38.80747995,-99999.0,'11111222,11111222,99999999' 
TABS,ioos:station:TABS:L:1,1998-06-04T06:00:00Z,28.0416,-94.1166,2.0,320.3798257,40.42657542,-99999.0,'11111222,11111222,99999999' 
TABS,ioos:station:TABS:L:1,1998-06-04T06:30:00Z,28.0416,-94.1166,2.0,310.841058,39.19208338,-99999.0,'11111222,11111222,99999999' 
TABS,ioos:station:TABS:L:1,1998-06-04T07:00:00Z,28.0416,-94.1166,2.0,311.6476306,41.47208338,-99999.0,'11111222,11111222,99999999' 
TABS,ioos:station:TABS:L:1,1998-06-04T07:30:00Z,28.0416,-94.1166,2.0,318.123163,40.62704641,-99999.0,'11111222,11111222,99999999' 
TABS,ioos:station:TABS:L:1,1998-06-04T08:00:00Z,28.0416,-94.1166,2.0,321.6626088,40.83539886,-99999.0,'11111222,11111222,99999999' 
TABS,ioos:station:TABS:L:1,1998-06-04T08:30:00Z,28.0416,-94.1166,2.0,328.8415741,38.30614572,-99999.0,'11111222,11111222,99999999' 
TABS,ioos:station:TABS:L:1,1998-06-04T09:00:00Z,28.0416,-94.1166,2.0,336.5661769,38.97470462,-99999.0,'11111222,11111222,99999999' 
TABS,ioos:station:TABS:L:1,1998-06-04T09:30:00Z,28.0416,-94.1166,2.0,351.6867702,34.02756677,-99999.0,'11111222,11111222,99999999' 
TABS,ioos:station:TABS:L:1,1998-06-04T10:00:00Z,28.0416,-94.1166,2.0,355.0278581,37.84241536,-99999.0,'11111222,11111222,99999999' 
TABS,ioos:station:TABS:L:1,1998-06-04T10:30:00Z,28.0416,-94.1166,2.0,1.262837245,40.38980688,-99999.0,'11111222,11111222,99999999' 
TABS,ioos:station:TABS:L:1,1998-06-04T11:00:00Z,28.0416,-94.1166,2.0,4.626932715,40.66250484,-99999.0,'11111222,11111222,99999999' 
TABS,ioos:station:TABS:L:1,1998-06-04T11:30:00Z,28.0416,-94.1166,2.0,9.77193496,45.6624846,-99999.0,'11111222,11111222,99999999' 
TABS,ioos:station:TABS:L:1,1998-06-04T12:00:00Z,28.0416,-94.1166,2.0,11.19194952,43.74183581,-99999.0,'11111222,11111222,99999999' 
TABS,ioos:station:TABS:L:1,1998-06-04T12:30:00Z,28.0416,-94.1166,2.0,11.94093828,50.41078555,-99999.0,'11111222,11111222,99999999' 
TABS,ioos:station:TABS:L:1,1998-06-04T13:00:00Z,28.0416,-94.1166,2.0,11.43988484,39.83128921,-99999.0,'11111222,11111222,99999999' 
TABS,ioos:station:TABS:L:1,1998-06-04T13:30:00Z,28.0416,-94.1166,2.0,17.80438118,38.49357609,-99999.0,'11111222,11111222,99999999' 
TABS,ioos:station:TABS:L:1,1998-06-04T14:00:00Z,28.0416,-94.1166,2.0,19.7719061,40.52929434,-99999.0,'11111222,11111222,99999999' 
TABS,ioos:station:TABS:L:1,1998-06-04T14:30:00Z,28.0416,-94.1166,2.0,19.23663514,43.40334549,-99999.0,'11111222,11111222,99999999' 
TABS,ioos:station:TABS:L:1,1998-06-04T15:00:00Z,28.0416,-94.1166,2.0,19.80244461,31.67290482,-99999.0,'11111222,11111222,99999999' 
TABS,ioos:station:TABS:L:1,1998-06-04T15:30:00Z,28.0416,-94.1166,2.0,23.42525124,29.22904035,-99999.0,'11111222,11111222,99999999' 
TABS,ioos:station:TABS:L:1,1998-06-04T16:00:00Z,28.0416,-94.1166,2.0,32.19532946,33.27669605,-99999.0,'11111222,11111222,99999999' 
TABS,ioos:station:TABS:L:1,1998-06-04T16:30:00Z,28.0416,-94.1166,2.0,27.06449533,30.79182521,-99999.0,'11111222,11111222,99999999' 
TABS,ioos:station:TABS:L:1,1998-06-04T17:00:00Z,28.0416,-94.1166,2.0,45.00010523,27.3933167,-99999.0,'11111222,11111222,99999999' 
TABS,ioos:station:TABS:L:1,1998-06-04T17:30:00Z,28.0416,-94.1166,2.0,55.58656223,48.76480801,-99999.0,'11111222,11111222,99999999' 
TABS,ioos:station:TABS:L:1,1998-06-04T18:00:00Z,28.0416,-94.1166,2.0,63.95001411,59.70542689,-99999.0,'11111222,11111222,99999999' 
TABS,ioos:station:TABS:L:1,1998-06-04T18:30:00Z,28.0416,-94.1166,2.0,72.65018104,57.44358798,-99999.0,'11111222,11111222,99999999' 
TABS,ioos:station:TABS:L:1,1998-06-04T19:00:00Z,28.0416,-94.1166,2.0,72.65259092,51.98455925,-99999.0,'11111222,11111222,99999999' 
TABS,ioos:station:TABS:L:1,1998-06-04T19:30:00Z,28.0416,-94.1166,2.0,77.89621626,39.77420898,-99999.0,'11111222,11111222,99999999' 
TABS,ioos:station:TABS:L:1,1998-06-04T20:00:00Z,28.0416,-94.1166,2.0,90.0,38.29,-99999.0,'11111222,11111222,99999999' 
TABS,ioos:station:TABS:L:1,1998-06-04T20:30:00Z,28.0416,-94.1166,2.0,97.18463854,36.94004467,-99999.0,'11111222,11111222,99999999' 
TABS,ioos:station:TABS:L:1,1998-06-04T21:00:00Z,28.0416,-94.1166,2.0,106.9617341,40.34502448,-99999.0,'11111222,11111222,99999999' 
TABS,ioos:station:TABS:L:1,1998-06-04T21:30:00Z,28.0416,-94.1166,2.0,102.723782,33.14391196,-99999.0,'11111222,11111222,99999999' 
TABS,ioos:station:TABS:L:1,1998-06-04T22:00:00Z,28.0416,-94.1166,2.0,112.6406219,36.00461776,-99999.0,'11111222,11111222,99999999' 
TABS,ioos:station:TABS:L:1,1998-06-04T22:30:00Z,28.0416,-94.1166,2.0,111.0360461,29.05648465,-99999.0,'11111222,11111222,99999999' 
TABS,ioos:station:TABS:L:1,1998-06-04T23:00:00Z,28.0416,-94.1166,2.0,113.5364509,26.49415973,-99999.0,'11111222,11111222,99999999' 
TABS,ioos:station:TABS:L:1,1998-06-04T23:30:00Z,28.0416,-94.1166,2.0,153.7329449,24.92355111,-99999.0,'11111222,11111222,99999999' 